Home   Weather   41°56'N, 87°51'W   Past weeks
Flag for USA

Past Weather in 41°56'N, 87°51'W, USA — Yesterday and Last 2 Weeks

Now
27 °F

Sunny.


Feels Like: 18 °F
Forecast: 42 / 28 °F
Wind: 9 mph from Southwest

Location: Chicago Midway Airport

Current Time: Feb 22, 2020 at 8:04:33 am

Latest Report: Feb 22, 2020 at 6:53 am


Visibility: 10 mi

Pressure: 30.29 "Hg

Humidity: 63%

Dew Point: 16 °F

Location of 41°56'N, 87°51'WLocation

Past Weather in 41°56'N, 87°51'W — Graph

°F

41°56'N, 87°51'W Temperature Yesterday

Maximum temperature yesterday: 37 °F (at 2:53 pm)
Minimum temperature yesterday: 12 °F (at 4:53 am)
Average temperature yesterday: 25 °F

High & Low Weather Summary for the Past Weeks

 TemperatureHumidityPressure
High42 °F (Feb 16, 2:53 pm)100% (Feb 17, 11:53 pm)30.76 "Hg (Feb 17, 11:53 pm)
Low-1 °F (Feb 14, 5:53 am)27% (Feb 20, 2:53 pm)29.70 "Hg (Feb 7, 6:53 am)
Average27 °F68%30.21 "Hg
* Reported Feb 7 6:53 am — Feb 22 6:53 am, 41°56'N, 87°51'W. Weather by CustomWeather, © 2020

Note: Actual official high and low records may vary slightly from our data, if they occured in-between our weather recording intervals... More about our weather records

41°56'N, 87°51'W Weather History for the Previous 24 Hours

Scroll right to see more
 ConditionsComfort  
Time TempWeatherWind HumidityBarometerVisibility
6:53 am
Sat, Feb 22
27 °FSunny.9 mph63%30.29 "Hg10 mi
4:53 am27 °FClear.7 mph63%30.29 "Hg10 mi
3:53 am27 °FClear.10 mph63%30.29 "Hg10 mi
2:53 am28 °FClear.9 mph61%30.31 "Hg10 mi
1:53 am28 °FClear.9 mph61%30.32 "Hg10 mi
12:53 am29 °FClear.12 mph61%30.34 "Hg10 mi
11:53 pm
Fri, Feb 21
30 °FPassing clouds.14 mph59%30.35 "Hg10 mi
10:53 pm30 °FPassing clouds.14 mph59%30.37 "Hg10 mi
9:53 pm31 °FPassing clouds.14 mph57%30.37 "Hg10 mi
8:53 pm31 °FClear.16 mph57%30.38 "Hg10 mi
7:53 pm31 °FPassing clouds.14 mph59%30.38 "Hg10 mi
6:53 pm32 °FClear.15 mph52%30.40 "Hg10 mi
5:53 pm33 °FPassing clouds.14 mph45%30.41 "Hg10 mi
4:53 pm36 °FSunny.17 mph37%30.43 "Hg10 mi
3:53 pm37 °FSunny.20 mph34%30.44 "Hg10 mi
2:53 pm37 °FSunny.17 mph31%30.47 "Hg10 mi
1:53 pm36 °FSunny.20 mph32%30.50 "Hg10 mi
12:53 pm34 °FSunny.20 mph32%30.55 "Hg10 mi
11:53 am31 °FSunny.16 mph38%30.59 "Hg10 mi
10:53 am29 °FSunny.13 mph41%30.62 "Hg10 mi
9:53 am24 °FSunny.12 mph48%30.63 "Hg10 mi
8:53 am21 °FSunny.12 mph50%30.65 "Hg10 mi
Weather by CustomWeather, © 2020

See weather overview

Advertising